CAPE
0 1 1 1 0 0 0 0 6 5 4 0 0 0 0 0 0 0 0 2 1 5 7 6 4 0 0 0 8 4 1 36 55 16 8 2 2 0
0 0 0 0 0 0 1 0 1 1 1 0 2 1 0 0 0 0 0 0 0 4 3 5 5 0 1 4 3 4 5 1 3 5 5 5 3 1
0 0 0 0 0 0 0 0 0 0 0 0 1 0 0 0 0 0 1 0 0 3 5 3 2 2 2 1 1 2 5 5 9 14 11 5 2 1
0 0 0 0 0 0 0 0 0 0 0 1 1 1 0 1 0 0 1 0 1 0 1 1 0 2 1 2 0 0 0 0 0 0 1 0 4 9
0 0 0 0 0 0 0 1 1 0 0 0 1 0 0 0 0 0 0 0 0 0 0 0 0 0 0 0 0 0 0 0 0 0 0 0 0 0
0 0 0 0 1 1 0 0 0 0 0 0 0 0 0 0 0 0 0 0 0 0 0 0 0 0 0 0 0 0 0 0 0 0 0 0 0 0
0 0 0 0 0 0 0 0 0 0 0 0 0 0 0 0 0 0 0 0 0 0 0 0 0 0 0 0 0 0 0 0 0 0 0 0 0 0
0 0 0 0 0 0 0 0 0 0 0 0 0 0 0 0 0 0 0 0 0 0 0 0 0 0 0 0 0 0 0 0 0 0 0 0 0 0
0 0 0 0 0 0 0 0 0 0 0 0 0 0 0 0 0 0 0 0 0 0 0 0 0 0 0 0 0 0 0 0 0 0 0 0 0 0
0 0 0 0 0 0 0 0 0 0 0 0 0 0 0 0 0 0 0 0 0 0 0 0 0 0 0 0 0 0 0 0 0 0 1 1 1 1
0 0 0 0 0 0 0 0 0 0 0 0 0 0 0 0 0 0 0 0 0 0 0 0 0 0 0 0 0 0 0 0 0 0 0 1 2 2
0 0 0 0 0 0 0 0 0 0 0 0 0 0 0 0 0 0 0 0 0 0 0 0 0 0 0 0 0 0 0 0 0 0 0 0 1 0
0 0 0 0 0 0 0 0 0 0 0 0 0 0 0 0 0 0 0 0 0 0 0 0 0 0 0 0 0 0 0 0 0 0 0 0 1 2
0 0 0 0 0 0 0 0 0 0 0 0 0 0 0 0 0 0 0 0 0 0 0 1 0 0 0 0 1 0 0 0 0 0 0 0 1 1
0 0 0 0 0 0 0 0 0 0 0 0 0 0 0 0 0 0 0 0 0 0 0 0 0 0 0 0 0 0 0 0 0 0 0 0 0 1
0 0 0 0 0 0 0 0 0 0 0 0 0 0 0 0 0 0 0 0 0 0 1 0 0 0 0 0 0 0 0 0 0 1 0 1 0 1
0 0 0 0 0 0 0 0 0 0 0 0 0 0 0 0 0 0 0 0 1 0 0 1 0 0 0 0 0 0 0 0 0 0 1 0 0 0
0 0 0 0 0 0 0 0 0 0 0 0 0 0 0 0 0 0 0 0 0 0 0 0 0 0 0 0 0 0 0 0 0 0 0 0 0 0
0 0 0 0 0 0 0 0 0 0 0 0 0 0 0 0 0 0 0 0 0 0 0 0 0 0 1 0 0 0 0 0 0 0 0 0 0 0
0 0 0 0 0 0 0 0 0 0 0 0 0 0 0 0 0 0 0 0 0 0 0 0 0 0 1 1 1 0 0 0 0 0 0 0 0 0
0 0 0 0 0 0 0 0 0 0 0 0 0 0 0 0 0 0 0 0 0 0 1 0 0 4 0 0 0 0 0 0 0 0 0 0 0 1
0 0 0 0 0 0 0 0 0 0 0 0 0 0 0 0 0 0 0 0 0 0 0 0 0 0 0 0 1 1 1 0 0 0 0 1 0 1
0 0 0 0 0 0 0 0 0 0 0 0 0 0 0 0 0 0 0 1 0 0 0 0 0 0 0 0 0 0 0 0 0 0 0 0 0 0
CIN
0 0 0 0 0 0 0 0 -2 -1 -2 0 0 0 0 0 0 0 0 -1 0 0 0 0 -2 0 0 0 0 -4 0 -20 -1 0 0 0 0 0
0 0 0 0 0 0 0 0 0 -5 -1 0 0 0 0 0 0 0 0 0 0 0 0 0 0 0 0 0 0 0 0 0 0 0 0 0 0 -1
0 0 0 0 0 0 0 0 0 0 0 0 0 0 0 0 0 0 0 0 0 0 0 0 0 -1 0 0 0 0 0 0 0 0 0 0 0 0
0 0 0 0 0 0 0 0 0 0 0 0 0 0 0 0 0 0 0 0 0 0 0 0 0 0 0 0 0 0 0 0 0 0 0 0 0 0
0 0 0 0 0 0 0 0 0 0 0 0 0 0 0 0 0 0 0 0 0 0 0 0 0 0 0 0 0 0 0 0 0 0 0 0 0 0
0 0 0 0 0 0 0 0 0 0 0 0 0 0 0 0 0 0 0 0 0 0 0 0 0 0 0 0 0 0 0 0 0 0 0 0 0 0
0 0 0 0 0 0 0 0 0 0 0 0 0 0 0 0 0 0 0 0 0 0 0 0 0 0 0 0 0 0 0 0 0 0 0 0 0 0
0 0 0 0 0 0 0 0 0 0 0 0 0 0 0 0 0 0 0 0 0 0 0 0 0 0 0 0 0 0 0 0 0 0 0 0 0 0
0 0 0 0 0 0 0 0 0 0 0 0 0 0 0 0 0 0 0 0 0 0 0 0 0 0 0 0 0 0 0 0 0 0 0 0 0 0
0 0 0 0 0 0 0 0 0 0 0 0 0 0 0 0 0 0 0 0 0 0 0 0 0 0 0 0 0 0 0 0 0 0 0 0 0 0
0 0 0 0 0 0 0 0 0 0 0 0 0 0 0 0 0 0 0 0 0 0 0 0 0 0 0 0 0 0 0 0 0 0 0 -1 -1 0
0 0 0 0 0 0 0 0 0 0 0 0 0 0 0 0 0 0 0 0 0 0 0 0 0 0 0 0 0 0 0 0 0 0 0 0 -1 -1
0 0 0 0 0 0 0 0 0 0 0 0 0 0 0 0 0 0 0 0 0 0 0 -1 0 0 0 0 0 0 0 0 0 0 0 0 0 0
0 0 0 0 0 0 0 0 0 0 0 0 0 0 0 0 0 0 0 0 -1 0 -1 -2 0 -1 -1 -1 0 0 0 0 0 -1 0 0 -1 0
0 0 0 0 0 0 0 0 0 0 0 0 0 0 0 0 0 0 0 0 0 -1 0 0 -1 -1 0 0 0 0 0 0 0 0 -1 0 0 0
0 0 0 0 0 0 0 0 0 0 0 0 0 0 0 0 0 0 0 0 0 0 -1 0 0 0 0 0 0 0 0 0 0 0 -1 -1 0 0
0 0 0 0 0 0 0 0 0 0 0 0 0 0 0 0 0 0 0 0 -1 -1 -1 -2 0 -1 0 0 0 0 0 0 0 0 -1 0 0 0
0 0 0 0 0 0 0 0 0 0 0 0 0 0 0 0 0 0 0 0 0 0 0 0 -1 -1 0 0 0 0 0 0 0 -1 0 0 0 0
0 0 0 0 0 0 0 0 0 0 0 0 0 0 0 0 0 0 0 0 0 0 0 0 0 -1 0 0 0 0 0 0 0 0 0 0 0 0
0 0 0 0 0 0 0 0 0 0 0 0 0 0 0 0 0 0 0 0 0 0 0 0 0 0 0 0 0 0 0 0 0 0 0 0 0 0
0 0 0 0 0 0 0 0 0 0 0 0 0 0 0 0 0 0 0 0 0 0 0 0 0 0 0 0 0 0 0 0 0 0 0 0 0 0
0 0 0 0 0 0 0 0 0 0 0 0 0 0 0 0 0 0 0 0 0 0 0 -1 0 -1 -2 0 0 0 0 0 0 0 0 0 -1 0
0 0 0 0 0 0 0 0 0 0 0 0 0 0 0 0 0 0 0 0 0 0 0 0 0 -1 0 0 -1 0 0 0 0 0 0 0 0 0
Wind_Speed
22 22 21 20 21 19 20 20 21 24 24 21 21 22 23 23 24 24 23 25 27 28 25 24 25 26 27 30 24 8 9 9 13 4 2 9 13 20
22 21 21 20 20 21 20 20 20 20 23 22 22 22 23 21 22 22 23 23 25 26 25 25 25 25 24 24 21 17 14 8 3 6 8 13 16 20
22 21 21 20 20 20 19 18 18 19 19 20 20 21 21 23 22 22 22 22 22 25 25 24 24 23 22 20 19 18 14 9 5 5 11 16 19 20
20 18 18 18 18 18 18 18 19 19 19 19 19 20 20 21 21 21 21 22 22 24 24 24 23 23 21 20 18 16 13 12 10 11 11 15 18 20
18 17 17 17 18 18 19 18 19 18 19 18 18 18 18 21 20 21 21 21 21 22 23 23 23 22 21 20 19 17 16 14 13 13 14 16 17 18
16 16 17 17 17 16 16 18 19 18 18 18 19 19 19 19 19 23 23 23 23 24 22 21 22 21 21 20 19 19 18 18 17 16 17 18 19 19
15 15 15 16 16 18 17 19 20 19 20 20 20 20 20 22 23 24 24 26 22 23 25 22 22 23 20 20 20 20 21 19 19 19 20 21 20 21
14 14 14 15 16 18 18 20 20 20 20 20 20 20 20 21 22 23 24 25 23 22 26 25 23 24 23 23 23 24 23 22 21 20 21 22 24 25
13 13 15 16 17 18 19 19 20 21 21 21 21 21 21 21 21 23 23 24 24 26 26 23 23 24 23 23 22 25 24 23 22 22 22 22 22 22
13 15 16 16 17 19 20 20 20 20 21 21 21 20 20 21 21 20 21 22 22 19 23 22 24 25 25 24 23 24 23 23 22 22 22 22 21 22
14 15 16 17 18 19 20 21 20 20 19 20 20 20 20 20 19 20 21 23 23 20 22 22 25 27 25 23 23 23 23 23 23 22 23 23 23 23
15 15 16 19 19 20 21 21 22 22 21 21 19 18 18 18 19 19 20 20 22 22 21 25 26 27 26 22 22 23 24 23 24 24 25 25 24 25
16 16 17 18 20 21 20 21 22 23 21 21 21 19 19 18 18 20 20 19 20 21 22 24 24 25 23 26 26 26 25 25 25 27 27 26 26 26
17 17 17 19 20 20 20 21 21 21 21 22 21 20 19 19 19 20 21 20 20 21 23 22 23 24 25 28 27 25 26 27 28 28 27 27 28 28
18 18 18 19 20 19 19 20 20 21 21 21 21 20 20 20 20 20 20 21 21 20 20 20 20 23 24 26 28 29 31 25 30 27 26 26 26 27
18 19 18 19 20 20 19 18 19 20 21 21 21 21 20 20 20 20 22 23 24 24 21 19 21 22 25 26 27 30 28 26 26 26 27 28 29 28
18 19 20 20 20 18 18 18 20 20 21 21 21 21 21 20 20 21 21 23 24 26 25 23 21 22 23 26 30 29 29 28 26 27 27 29 29 27
18 21 22 20 21 20 19 19 19 21 21 21 21 21 22 22 22 22 23 23 24 25 25 25 25 27 29 26 18 25 26 26 26 27 27 28 28 26
19 21 22 21 21 20 19 19 20 20 20 21 21 22 22 22 23 24 23 23 24 25 25 24 24 25 28 28 25 18 22 24 28 28 26 25 26 27
17 19 20 20 19 19 19 19 20 20 20 20 21 21 21 21 23 22 22 23 24 25 25 24 23 22 22 21 24 25 24 26 26 27 27 26 25 27
16 17 17 18 19 20 20 20 20 20 20 21 21 21 20 21 22 21 22 23 24 24 25 25 23 21 22 25 24 25 26 21 19 22 25 26 28 29
19 19 19 19 20 20 21 21 21 21 21 21 20 20 20 20 21 22 22 23 23 23 24 24 24 23 22 22 24 27 29 29 26 25 21 20 21 27
21 21 21 21 22 21 21 21 22 21 20 20 20 21 21 21 21 21 22 23 23 23 23 24 23 22 22 22 24 27 29 31 31 29 26 22 17 16
Wind_Direction
323 325 327 328 328 329 326 325 323 323 326 334 335 340 340 341 341 343 345 340 338 338 347 348 348 346 345 342 345 359 332 257 270 232 210 282 297 293
322 323 325 327 327 327 326 326 325 324 323 333 335 337 340 343 346 345 343 343 340 339 344 349 352 354 359 4 14 21 43 49 312 281 294 297 296 298
324 325 325 327 327 328 330 332 335 334 329 333 338 341 343 342 343 344 343 342 344 340 344 347 350 354 1 9 12 15 16 26 29 323 309 303 304 302
327 330 331 332 331 334 337 338 338 339 338 336 341 344 346 348 350 347 344 343 340 339 340 342 345 350 355 358 360 2 1 350 337 327 325 318 309 304
330 333 333 335 336 339 340 343 342 344 346 346 346 350 351 350 348 345 343 343 344 343 342 342 342 344 346 347 348 348 345 341 337 333 326 321 316 312
336 337 341 341 343 346 350 345 345 346 350 350 348 349 350 350 348 341 339 340 339 339 344 346 344 343 342 340 341 340 338 334 328 323 320 316 313 312
341 345 351 357 357 348 348 344 344 345 345 343 345 345 346 343 340 339 337 334 339 342 338 341 340 338 342 339 338 335 330 327 323 318 313 311 310 308
340 347 352 351 349 350 351 348 346 344 345 346 345 345 346 344 343 341 339 338 337 348 338 334 337 335 336 335 331 328 325 323 320 316 312 308 305 302
342 345 344 346 347 349 348 348 347 346 348 345 345 346 344 345 345 342 341 339 337 336 338 339 343 339 342 339 338 331 327 324 320 317 313 310 307 304
340 333 339 344 347 341 343 345 347 350 348 349 349 348 347 344 345 346 344 342 342 348 346 341 342 339 338 339 341 337 333 329 325 321 317 313 310 307
329 333 337 339 341 342 343 345 348 350 351 349 349 347 347 346 346 345 344 341 341 347 348 343 340 336 336 337 338 339 335 332 329 325 319 314 310 307
329 332 336 334 336 338 341 344 344 346 346 348 352 353 353 354 352 350 346 344 342 341 346 340 338 340 337 342 341 338 333 331 328 321 315 311 308 306
325 331 336 335 334 335 343 343 342 342 348 348 349 351 353 353 352 351 349 347 342 339 344 342 338 339 339 334 335 334 331 329 326 320 316 312 307 303
322 329 333 335 336 338 342 343 344 345 346 345 346 348 348 347 348 345 343 343 341 337 335 338 337 336 333 330 330 334 334 329 323 319 317 314 309 305
321 326 331 334 335 339 343 343 344 344 344 344 344 344 345 345 342 342 342 339 338 337 337 335 332 332 329 326 324 324 326 330 322 319 318 314 313 310
318 322 326 328 332 335 340 344 344 343 343 343 342 342 343 342 340 341 339 338 336 336 338 336 333 329 326 325 323 321 322 323 325 321 317 314 311 309
316 319 320 323 328 335 340 341 340 339 339 340 338 339 339 339 339 339 338 336 335 335 335 336 335 332 327 324 321 319 320 319 319 318 317 314 313 313
313 312 314 319 322 327 332 336 335 335 336 337 337 337 336 335 335 335 335 334 334 334 334 334 334 332 331 329 316 322 323 322 323 321 319 316 316 317
307 309 312 316 319 324 328 329 329 332 334 335 334 333 333 334 333 332 333 333 332 332 333 334 333 333 331 329 332 327 324 326 323 321 320 319 318 318
305 308 312 316 320 323 324 325 327 328 330 331 332 331 332 332 331 332 332 331 331 331 332 333 332 331 328 328 331 327 327 323 322 320 320 320 318 317
302 304 309 313 316 319 320 321 322 323 326 327 328 329 329 330 330 330 330 329 329 329 329 330 331 331 330 331 326 325 327 325 318 318 321 320 320 319
300 301 305 309 312 314 317 318 318 319 321 323 325 326 328 329 328 328 328 328 328 328 327 329 331 331 328 326 324 325 325 326 324 320 312 305 312 316
296 298 302 305 309 311 313 314 314 316 319 321 322 324 327 326 327 327 327 326 326 327 327 328 329 329 326 325 324 324 324 323 323 323 321 317 307 264